DECAYED
Showing default

SENTRY, 59140 (Decayed)

Orbit data source: Space-Track

SENTRY, 59140 was a payload satellite owned by Quantum Space (US) in LEO that was launched on Mon, 04 Mar 2024 UTC via an FALCON 9 launch vehicle from the Air Force Western Test Range (AFWTR). Payload-class satellites include a variety of spacecraft equipped with specific instruments for various scientific and technological missions. These include communications satellites like Starlink; space stations such as the ISS; scientific satellites like the Hubble; Earth observation satellites from companies like Planet Labs, Umbra, and HawkEye 360; GPS; miniature CubeSats for education and research; and military/defense satellites.

Not visible in the next 10 days
Identifier
59140, 2024-043AU
Orbit
Decayed
Country
Flag of USUS
Related business
Manufacturer
Quantum Space
Mission
Decayed Commercial Technology
Bus & Motor
CUBESAT 6U, Unknown motor
Mass
~10 kg wet, ~10 kg dry
Launch date (UTC)
2024-03-04 (2 years ago)
Launch vehicle
FALCON 9
Launch site
Air Force Western Test Range (AFWTR)
Object type
Payload
Rocket body
Debris
Shape & HBR
Box + 2 Pan, 0.2 m
Radar Cross Section
0.080 m², Medium (>0.1 m² and < 1m²)

Expand to show TLE details & history
Last TLE update: 5 months ago

TLE from 5 months ago
0 SENTRY
1 59140U 24043AU  26083.41189137  .04762685  25479-5  11746-2 0  9996
2 59140  97.5148 239.7250 0008888 280.4836  79.5456 16.29150633115421
Epoch: 2026-03-24T09:53Z
TLE epoch observation values (Epoch: 2026-03-24T09:53:07.414Z)
Latitude
0.00002°
Longitude
-90.44582°
Altitude
197.002 km
Speed
7.789 km/s
True Right ascension
15h 58m 53s
True Declination
0° 00' 00"
Sunlit
Object was in full shadow at epoch
Visualization orbit readout
Latitude
Unknown
Longitude
Unknown
Altitude
Unknown
Speed
Unknown
Apparent Right ascension
Unknown
Apparent Declination
Unknown
Sunlit
N/A
Visualization observer readout
Local Sidereal Time
16:03:00
Azimuth
Unknown
Elevation
Unknown
Doppler factor
Unknown
Orbital elements
Apogee altitude
197.489 km
Perigee altitude
185.811 km
Semi-major axis
6,569.787 km
Eccentricity
0.00089
Inclination
97.5148°
RAAN
239.725°
Arg. of periapsis
280.4836°
True anomaly
79.64578°
Mean anomaly
79.5456°
Eccentric anomaly
79.59569°
Mean motion
4.07583 °/min
Orbital period
88.33 mins
BSTAR
0.0011746
Loading maneuver chart data...
Computing Atmospheric mass density...
Loading historical data...
Loading historical data...
Loading historical data...
Loading historical data...
Loading historical data...
Loading historical data...
Loading historical data...

Documentation

Showing up to 5 results
|